Zurück zum Katalog

SL-16 DEB

AktivLEO
NORAD 39867·DEBRIS·🇷🇺 Russia

Gestartet Dec 25, 1992 von Baikonur Cosmodrome

Loading…

Nächste Überflüge (nächste 24 Stunden)

TLE

VeraltetSource: Space-Track

Epoche: Sep 5, 2026, 14:02 UTC

1 39867U 92093LV  26248.58503154  .00002844  00000-0  11418-2 0  9994
2 39867  70.9639 331.6962 0128324 220.3928 138.7618 14.24625963608656

Verfolge SL-16 DEB in Echtzeit mit AllMySat

Download on the App Store